EAST1 KSZL-KSZL

Flight info

Callsign EAST1
Flight time N/A
Altitude 20000
Route KSZL KIRK KSZL
Aircraft EFA/M-SDE3FGHILRWXY/LB2D1

Departure

Time 2026-04-25 19:07
Airport Whiteman Air Force Base (KSZL)

Arrival

Time N/A
Airport Whiteman Air Force Base (KSZL)
Time Latitude Longitude Altitude Speed Heading
2026-04-25 18:54 38.74708 -93.54915 860 ft 0 kts 307°
2026-04-25 19:04 38.74705 -93.54918 850 ft 2 kts 124°
2026-04-25 19:04 38.74698 -93.54908 850 ft 4 kts 139°
2026-04-25 19:05 38.74721 -93.54771 859 ft 16 kts 82°
2026-04-25 19:05 38.74718 -93.54521 862 ft 4 kts 101°
2026-04-25 19:05 38.74715 -93.54502 862 ft 0 kts 101°
2026-04-25 19:06 38.74709 -93.54466 858 ft 7 kts 105°
2026-04-25 19:06 38.74232 -93.54493 858 ft 165 kts 191°
2026-04-25 19:06 38.72514 -93.54919 876 ft 348 kts 189°
2026-04-25 19:07 38.65696 -93.56585 4891 ft 623 kts 186°
2026-04-25 19:07 38.61358 -93.55101 5042 ft 681 kts 142°
2026-04-25 19:08 38.62270 -93.46001 5271 ft 695 kts 346°
2026-04-25 19:08 38.66609 -93.49033 5342 ft 721 kts 325°
2026-04-25 19:09 38.78651 -93.47135 5221 ft 732 kts 36°
2026-04-25 19:09 38.81422 -93.44597 5166 ft 751 kts 37°
2026-04-25 19:09 38.91528 -93.35602 4987 ft 761 kts 34°
2026-04-25 19:10 38.95971 -93.31905 4812 ft 761 kts 34°
2026-04-25 19:10 39.00433 -93.28238 4776 ft 760 kts 34°
2026-04-25 19:10 39.04901 -93.24629 4978 ft 758 kts 33°
2026-04-25 19:10 39.09314 -93.21130 5126 ft 724 kts 32°
2026-04-25 19:11 39.13651 -93.17906 5137 ft 718 kts 30°
2026-04-25 19:11 39.18220 -93.15288 5035 ft 720 kts 23°
2026-04-25 19:11 39.22806 -93.12897 5038 ft 721 kts 23°
2026-04-25 19:11 39.27531 -93.10490 5024 ft 721 kts 22°
2026-04-25 19:12 39.32171 -93.08227 4779 ft 723 kts 22°
2026-04-25 19:12 39.36960 -93.05961 4205 ft 723 kts 21°
2026-04-25 19:12 39.41613 -93.03821 3888 ft 718 kts 20°
2026-04-25 19:12 39.46334 -93.01692 3570 ft 718 kts 20°
2026-04-25 19:13 39.51056 -92.99611 2574 ft 719 kts 20°
2026-04-25 19:13 39.55721 -92.97554 1642 ft 694 kts 20°
2026-04-25 19:13 39.60227 -92.95558 1269 ft 674 kts 20°
2026-04-25 19:13 39.64603 -92.93615 1159 ft 658 kts 20°
2026-04-25 19:14 39.68923 -92.91772 1236 ft 646 kts 19°
2026-04-25 19:14 39.70367 -92.91167 1282 ft 638 kts 19°
2026-04-25 19:14 39.77283 -92.88263 1008 ft 623 kts 19°
2026-04-25 19:14 39.81032 -92.85546 1040 ft 617 kts 33°
2026-04-25 19:15 39.84430 -92.82319 2627 ft 582 kts 43°
2026-04-25 19:15 39.87472 -92.78793 3876 ft 608 kts 43°
2026-04-25 19:15 39.90740 -92.75153 3894 ft 625 kts 40°
2026-04-25 19:15 39.94052 -92.71458 3862 ft 630 kts 43°
2026-04-25 19:16 39.96912 -92.67127 3321 ft 631 kts 59°
2026-04-25 19:16 39.99020 -92.61813 2381 ft 695 kts 61°
2026-04-25 19:16 40.02197 -92.56993 2041 ft 712 kts 34°
2026-04-25 19:16 40.06854 -92.54802 1471 ft 717 kts 14°
2026-04-25 19:17 40.11832 -92.54351 1270 ft 721 kts
2026-04-25 19:17 40.14432 -92.58382 3773 ft 698 kts 265°
2026-04-25 19:17 40.12317 -92.63477 5593 ft 564 kts 213°
2026-04-25 19:17 40.08455 -92.63635 6945 ft 574 kts 168°
2026-04-25 19:18 40.04720 -92.62326 6733 ft 543 kts 161°
2026-04-25 19:18 40.01159 -92.60930 6358 ft 528 kts 164°
2026-04-25 19:18 39.97679 -92.59718 5832 ft 521 kts 165°
2026-04-25 19:18 39.95351 -92.56715 5738 ft 504 kts 73°
2026-04-25 19:19 39.98001 -92.53916 4208 ft 569 kts
2026-04-25 19:19 40.02186 -92.54371 2664 ft 568 kts 355°
2026-04-25 19:19 40.05779 -92.54504 1499 ft 471 kts
2026-04-25 19:19 40.06860 -92.54487 1259 ft 445 kts
2026-04-25 19:20 40.12238 -92.53971 1932 ft 517 kts 338°
2026-04-25 19:20 40.12250 -92.57305 2520 ft 456 kts 180°
2026-04-25 19:20 40.10768 -92.55788 2666 ft 438 kts 142°
2026-04-25 19:20 40.07368 -92.55193 2880 ft 473 kts 267°
2026-04-25 19:21 40.08399 -92.57366 8550 ft 101 kts 304°
2026-04-25 19:21 40.07780 -92.57670 11890 ft 137 kts 200°
2026-04-25 19:21 40.06490 -92.59632 7883 ft 448 kts 257°
2026-04-25 19:22 40.06977 -92.62477 8489 ft 522 kts 302°
2026-04-25 19:22 40.08978 -92.66463 4079 ft 614 kts 306°
2026-04-25 19:22 40.05882 -92.76400 3020 ft 640 kts 221°
2026-04-25 19:23 40.02577 -92.80187 2852 ft 628 kts 220°
2026-04-25 19:23 39.95411 -92.85770 2231 ft 653 kts 150°
2026-04-25 19:23 39.94802 -92.80376 1728 ft 705 kts 57°
2026-04-25 19:24 39.97857 -92.75392 1685 ft 727 kts 51°
2026-04-25 19:24 40.01052 -92.70243 1650 ft 733 kts 54°
2026-04-25 19:24 40.07030 -92.59892 1569 ft 710 kts 52°
2026-04-25 19:25 40.11299 -92.48773 1801 ft 498 kts 56°
2026-04-25 19:25 40.13562 -92.47151 1895 ft 334 kts
2026-04-25 19:25 40.15656 -92.47531 1935 ft 294 kts 312°
2026-04-25 19:26 40.15823 -92.50069 2013 ft 328 kts 257°
2026-04-25 19:26 40.15333 -92.52855 2066 ft 246 kts 256°
2026-04-25 19:26 40.14703 -92.54595 1894 ft 194 kts 218°
2026-04-25 19:26 40.13665 -92.54889 1731 ft 151 kts 164°
2026-04-25 19:27 40.12547 -92.54560 1618 ft 187 kts 163°
2026-04-25 19:27 40.11619 -92.54421 1430 ft 207 kts 175°
2026-04-25 19:27 40.10019 -92.54428 1008 ft 147 kts 176°
2026-04-25 19:27 40.09116 -92.54433 971 ft 73 kts 180°
2026-04-25 19:28 40.08884 -92.54423 976 ft 18 kts 134°
2026-04-25 19:28 40.08874 -92.54326 972 ft 0 kts 93°
2026-04-25 19:29 40.08883 -92.54300 972 ft 9 kts 40°
2026-04-25 19:29 40.08974 -92.54290 972 ft 16 kts
2026-04-25 19:29 40.09085 -92.54290 972 ft 16 kts 359°
2026-04-25 19:29 40.09138 -92.54239 972 ft 10 kts 91°
2026-04-25 19:30 40.09148 -92.54162 976 ft 8 kts 37°
2026-04-25 19:30 40.09193 -92.54129 971 ft 7 kts 11°
2026-04-25 19:30 40.09233 -92.54145 973 ft 2 kts 15°
2026-04-25 19:30 40.09237 -92.54125 973 ft 0 kts 87°